Wind_Speed
11 13 16 15 15 15 15 15 16 16 16 17 17 17 17 16 17 18 17 18 16 14 14 12 12 12 12 12 11 11 11 13 14 13 12 12 12 13 15 16 13 7 12
15 14 15 16 15 14 13 12 12 11 12 13 14 14 14 13 14 13 11 9 8 9 9 8 8 8 8 8 9 9 9 9 10 11 11 11 8 10 11 13 14 9 9
15 14 14 15 14 13 12 11 9 9 9 9 10 11 10 10 10 8 7 6 6 7 6 5 5 4 3 3 4 5 6 6 6 9 12 10 2 6 8 9 8 7 9
13 13 11 13 13 11 9 8 6 7 8 8 8 8 9 8 8 8 7 6 6 5 3 2 1 1 2 2 2 1 3 4 6 9 8 3 4 2 6 6 6 8 7
14 15 11 12 12 10 10 9 8 9 9 9 9 8 8 8 7 6 5 5 3 2 2 2 2 2 2 2 3 4 2 1 4 7 2 3 1 2 3 5 5 6 8
15 15 11 13 12 11 10 9 9 9 8 8 7 6 6 6 5 4 4 3 3 2 2 2 2 3 3 4 4 4 4 3 3 4 2 2 4 3 2 7 8 10 7
14 10 12 12 12 11 10 9 7 7 6 5 5 4 4 4 3 3 2 2 1 1 1 1 1 0 1 2 3 4 4 4 4 3 4 3 8 4 3 5 7 9 8
13 10 9 11 11 10 8 8 7 5 4 3 3 3 3 3 3 2 2 2 1 1 2 1 1 1 0 1 2 4 4 5 4 4 7 5 11 3 3 5 7 10 9
13 12 10 9 9 8 7 6 6 5 4 3 3 3 4 4 4 3 3 2 1 1 1 1 1 1 1 2 4 4 5 5 6 8 8 8 10 7 6 6 7 10 10
12 10 8 7 6 4 2 3 4 4 4 3 4 4 6 7 6 4 2 3 3 2 3 3 3 3 3 4 4 5 5 6 8 9 10 13 14 12 9 8 9 10 10
11 11 10 8 7 8 5 3 3 4 5 6 5 4 4 5 7 3 4 6 4 4 4 3 3 3 3 1 5 6 5 7 11 13 12 16 15 15 12 11 11 11 12
12 10 9 9 8 7 7 3 5 2 2 1 2 1 2 2 1 1 3 4 4 4 2 6 5 5 3 8 9 11 6 6 12 9 13 14 15 13 12 12 11 12 10
12 11 9 10 9 7 8 7 5 5 2 2 2 2 1 2 1 7 3 4 6 9 4 8 7 8 9 11 6 11 10 10 12 15 15 18 15 11 10 9 10 12 11
12 11 10 10 12 9 8 8 5 3 2 1 3 2 2 3 3 2 2 1 5 2 6 5 7 5 5 7 7 10 13 19 11 21 15 14 18 15 13 10 10 11 11
13 12 12 12 13 11 11 5 5 5 1 3 1 1 1 3 2 1 2 0 1 2 4 4 8 3 5 6 7 12 19 20 16 20 18 29 17 17 18 12 10 10 11
13 13 12 12 12 11 7 8 5 2 4 2 3 1 1 1 1 1 2 1 3 5 3 5 6 5 9 8 9 10 14 16 18 18 18 19 16 9 22 14 15 12 21
14 13 14 13 12 10 8 5 2 4 9 2 2 2 0 3 4 3 1 2 3 2 10 8 8 3 6 8 9 10 13 15 17 15 13 11 16 8 6 0 17 11 18
13 15 14 12 11 9 7 6 6 4 1 2 2 3 1 1 1 2 10 10 4 1 4 4 5 4 6 7 9 9 11 14 15 13 12 12 12 14 12 6 19 17 14
15 15 15 14 11 10 9 6 5 3 3 2 2 4 6 2 2 1 3 5 2 3 4 3 4 5 8 6 9 8 11 9 10 11 17 15 10 8 8 5 9 15 17
15 15 15 14 13 11 9 9 7 7 5 4 4 3 3 5 2 3 4 3 3 4 4 6 6 5 7 7 5 9 5 4 5 9 23 16 12 9 8 12 12 13 19
16 16 16 15 14 12 11 9 9 9 9 11 5 6 5 3 4 4 3 4 3 3 6 4 5 8 7 11 9 9 3 9 10 18 20 18 12 6 13 16 17 17 20
19 18 17 17 16 14 12 12 10 8 6 6 3 3 2 4 3 3 2 3 5 4 10 8 8 9 9 13 13 11 7 10 12 16 26 38 22 19 17 13 7 11 14
21 21 20 20 19 17 16 12 10 9 7 4 8 6 8 5 4 6 6 7 8 8 9 4 12 13 12 13 17 14 8 10 13 22 31 41 29 20 19 22 12 12 13
23 21 21 21 21 19 18 16 14 12 12 7 6 5 5 6 7 7 9 10 10 10 11 12 12 13 16 16 16 17 20 23 18 22 31 42 33 13 18 16 13 13 15
22 22 21 22 22 21 20 19 16 16 12 8 8 7 7 7 10 10 9 9 10 11 14 17 17 17 16 17 18 20 19 25 23 26 33 32 17 15 11 10 9 13 15
22 21 21 23 26 24 24 20 22 17 16 12 11 10 8 11 11 9 8 10 13 15 16 16 20 21 19 20 18 16 22 22 26 30 26 30 26 13 7 6 11 15 11
Wind_Direction
128 133 127 127 128 125 113 107 101 96 94 91 92 98 110 114 122 125 125 124 125 121 123 119 107 103 99 94 97 95 94 90 82 77 70 73 95 99 111 104 97 140 118
138 134 129 129 127 124 119 112 104 96 93 89 89 97 106 115 123 131 127 128 133 131 130 123 112 110 103 100 103 103 98 94 83 71 73 68 88 109 117 118 139 134 121
134 139 132 129 127 126 125 115 106 100 94 94 96 101 108 116 122 126 124 117 124 143 146 134 130 113 99 95 115 89 78 78 83 90 67 82 58 124 127 123 122 122 131
136 133 142 139 135 132 133 124 118 111 103 104 106 109 116 120 117 119 121 123 130 145 154 138 172 253 287 269 228 339 7 31 55 85 83 135 143 73 133 135 140 135 124
132 141 163 142 137 138 135 127 127 119 112 107 105 106 105 103 104 110 119 129 147 154 182 201 223 244 259 269 271 275 277 8 71 88 84 145 336 288 151 145 128 145 151
133 140 153 142 141 137 133 131 125 119 117 114 115 111 107 105 104 110 115 126 140 148 171 207 213 225 245 253 257 260 256 255 108 33 197 161 118 242 174 162 173 178 174
140 137 155 145 144 142 141 140 132 130 125 124 119 114 109 107 104 102 104 104 110 136 165 163 121 80 277 261 260 259 250 229 189 253 202 202 229 227 168 163 172 181 183
141 142 152 153 148 153 161 158 159 150 148 157 141 130 119 107 106 94 81 79 92 110 103 88 79 81 335 300 289 274 262 235 216 228 222 223 239 234 197 183 183 193 196
135 142 149 151 161 165 170 174 167 160 157 145 128 118 113 91 67 66 70 66 42 356 9 353 343 325 304 301 298 282 269 251 202 233 224 222 249 254 226 215 206 205 213
146 149 150 162 149 145 171 158 169 160 149 131 113 100 88 75 41 37 13 360 330 326 319 305 301 296 287 283 292 284 265 245 234 218 229 235 240 250 237 228 219 215 215
153 154 155 160 167 172 174 183 129 121 120 115 80 47 104 32 14 262 338 318 305 301 299 327 336 317 316 69 8 348 308 229 258 220 224 228 248 243 236 234 227 218 220
162 162 167 159 171 159 151 203 147 157 231 122 216 284 9 16 287 248 279 314 327 344 43 20 1 337 342 253 258 310 321 266 254 264 230 241 266 249 246 248 237 217 217
164 161 172 163 159 152 162 135 147 178 175 245 11 140 327 197 324 306 266 311 10 323 329 323 316 353 284 334 295 288 282 260 249 248 237 253 258 250 248 238 221 213 215
164 165 166 169 163 160 158 145 171 149 194 188 158 286 28 316 54 330 333 322 315 300 323 275 297 30 300 283 288 269 281 304 278 265 250 267 257 259 249 241 222 220 224
168 169 169 170 166 171 159 183 173 191 201 221 40 277 48 13 356 16 261 80 333 313 287 310 287 327 316 284 280 310 308 301 305 310 287 320 256 283 247 226 234 217 231
172 174 177 174 175 173 164 175 183 211 187 156 206 251 17 31 101 50 357 316 304 354 343 284 287 293 316 309 312 314 303 303 303 300 295 300 307 248 255 223 225 258 239
178 177 181 175 177 179 179 189 199 226 179 125 260 182 136 78 315 81 334 138 44 349 6 337 358 324 327 314 308 309 310 310 312 310 308 297 314 300 276 192 269 273 233
180 179 181 175 186 192 202 203 211 230 315 201 185 292 139 306 305 313 307 23 10 100 350 10 10 344 326 316 313 315 316 323 322 331 311 290 294 281 288 231 262 253 245
181 183 183 186 190 202 212 203 220 205 170 210 230 237 137 237 254 305 296 352 356 356 301 33 331 339 305 328 327 319 312 333 329 328 352 338 314 312 304 289 231 244 256
186 188 189 194 194 201 204 208 215 227 228 219 221 222 332 264 244 270 301 310 310 311 330 321 310 326 301 326 327 295 272 315 321 1 350 341 320 304 311 309 289 262 250
194 192 195 194 204 197 201 205 202 223 226 239 220 248 264 247 233 259 277 348 339 318 294 328 318 312 306 295 310 304 284 226 263 296 306 319 305 310 318 304 276 271 274
201 203 203 203 206 206 206 211 222 233 251 243 205 140 224 203 208 233 267 294 272 300 298 303 310 308 308 293 308 310 286 254 252 278 298 321 289 294 310 316 314 297 263
206 206 208 209 209 212 202 223 224 228 237 241 230 237 207 207 233 263 269 273 279 308 301 315 307 293 303 299 287 284 289 271 269 280 291 302 315 285 291 301 287 290 277
210 211 211 211 209 216 213 210 217 211 218 246 226 195 160 241 251 274 283 274 269 278 288 296 300 291 291 287 289 291 281 285 282 287 288 304 313 288 280 292 280 285 281
208 210 213 213 211 207 225 206 218 210 220 236 224 227 264 241 259 264 271 274 273 286 288 285 302 302 297 296 296 293 286 295 288 275 284 306 321 325 285 285 269 297 296
210 209 209 210 214 213 216 220 209 215 219 227 227 237 241 251 246 254 254 271 278 282 294 293 288 299 299 297 293 292 292 293 292 290 303 308 324 328 293 266 284 322 298
Height
1535 1533 1533 1534 1536 1537 1538 1539 1539 1540 1541 1542 1543 1544 1545 1545 1546 1547 1549 1550 1551 1552 1554 1554 1555 1555 1555 1556 1556 1556 1556 1557 1557 1557 1557 1558 1557 1558 1558 1559 1560 1560 1560
1535 1535 1535 1536 1538 1539 1540 1541 1542 1543 1544 1545 1546 1547 1547 1548 1549 1550 1551 1552 1553 1554 1554 1555 1556 1557 1557 1557 1558 1558 1558 1558 1558 1558 1558 1559 1559 1559 1560 1560 1560 1560 1562
1538 1537 1538 1538 1540 1541 1543 1544 1545 1546 1547 1547 1548 1549 1549 1550 1551 1552 1552 1553 1554 1554 1555 1556 1557 1558 1558 1558 1558 1559 1558 1559 1559 1559 1560 1561 1561 1560 1561 1561 1562 1563 1563
1539 1541 1541 1540 1542 1543 1545 1546 1547 1548 1548 1549 1550 1551 1551 1552 1553 1553 1554 1554 1554 1555 1556 1557 1558 1558 1558 1559 1559 1559 1559 1559 1560 1561 1561 1564 1563 1561 1561 1562 1562 1563 1565
1540 1542 1541 1543 1544 1545 1547 1548 1549 1550 1550 1551 1552 1553 1553 1553 1554 1554 1555 1555 1555 1556 1557 1558 1558 1559 1559 1559 1559 1559 1560 1560 1561 1562 1564 1564 1563 1561 1562 1562 1563 1564 1565
1542 1541 1543 1544 1546 1547 1549 1550 1550 1551 1552 1553 1554 1554 1555 1555 1555 1555 1556 1556 1556 1556 1557 1558 1559 1559 1559 1559 1560 1560 1560 1561 1561 1561 1564 1563 1563 1561 1562 1563 1563 1565 1566
1543 1544 1544 1546 1547 1548 1550 1551 1552 1553 1554 1555 1555 1556 1556 1556 1556 1556 1556 1557 1557 1557 1558 1558 1559 1559 1559 1559 1559 1559 1560 1561 1561 1565 1564 1563 1561 1562 1562 1562 1564 1565 1566
1544 1547 1546 1547 1548 1550 1551 1552 1553 1554 1555 1556 1557 1557 1557 1557 1557 1557 1558 1558 1558 1558 1558 1558 1559 1560 1559 1559 1559 1559 1559 1560 1560 1562 1562 1562 1560 1561 1560 1561 1562 1563 1564
1546 1547 1549 1549 1549 1551 1552 1553 1554 1555 1556 1557 1558 1558 1558 1558 1558 1558 1559 1559 1559 1559 1559 1559 1559 1560 1559 1559 1559 1558 1558 1558 1557 1560 1559 1559 1557 1557 1557 1558 1559 1561 1563
1547 1549 1551 1552 1553 1554 1553 1554 1555 1556 1557 1558 1559 1559 1559 1559 1559 1560 1559 1559 1559 1560 1560 1559 1559 1559 1559 1558 1558 1557 1557 1555 1553 1555 1555 1553 1554 1554 1555 1555 1556 1557 1560
1548 1550 1552 1554 1555 1556 1557 1556 1556 1557 1558 1559 1560 1560 1559 1560 1560 1559 1560 1560 1560 1560 1559 1559 1558 1558 1558 1556 1556 1555 1554 1550 1550 1549 1551 1549 1550 1551 1552 1552 1554 1556 1556
1548 1550 1552 1554 1556 1557 1559 1557 1560 1561 1560 1561 1562 1562 1561 1561 1562 1562 1561 1561 1560 1559 1559 1558 1558 1557 1555 1550 1553 1553 1551 1548 1546 1547 1550 1552 1553 1552 1551 1552 1552 1553 1555
1548 1550 1552 1554 1556 1558 1559 1560 1561 1561 1560 1561 1561 1561 1562 1562 1561 1561 1561 1561 1560 1559 1558 1558 1556 1555 1555 1553 1553 1551 1548 1544 1547 1548 1550 1555 1555 1554 1552 1549 1550 1552 1552
1547 1550 1552 1554 1555 1558 1559 1560 1562 1562 1563 1562 1562 1562 1561 1560 1562 1562 1562 1562 1561 1561 1561 1559 1556 1551 1559 1558 1556 1553 1548 1539 1544 1543 1545 1548 1552 1552 1550 1549 1550 1550 1552
1547 1550 1552 1553 1554 1557 1557 1560 1560 1562 1562 1562 1563 1563 1562 1562 1562 1562 1561 1561 1561 1561 1560 1559 1555 1558 1557 1556 1553 1550 1546 1540 1545 1544 1543 1543 1525 1543 1549 1546 1551 1547 1548
1546 1549 1551 1553 1553 1555 1558 1558 1560 1560 1561 1562 1562 1562 1562 1562 1561 1562 1561 1561 1560 1561 1559 1559 1557 1558 1557 1555 1552 1550 1548 1544 1546 1550 1552 1542 1534 1524 1544 1543 1544 1544 1546
1545 1548 1550 1553 1554 1555 1557 1558 1560 1558 1557 1561 1560 1562 1562 1561 1561 1560 1559 1559 1559 1561 1559 1559 1558 1558 1556 1556 1553 1551 1547 1544 1542 1545 1549 1549 1538 1536 1536 1535 1542 1541 1541
1544 1547 1550 1552 1555 1556 1558 1559 1559 1559 1559 1561 1562 1561 1561 1562 1561 1560 1556 1549 1558 1559 1560 1559 1559 1558 1556 1555 1553 1550 1547 1544 1541 1541 1540 1540 1537 1535 1531 1534 1538 1535 1537
1543 1546 1548 1551 1554 1556 1557 1559 1560 1559 1561 1561 1561 1560 1557 1562 1562 1560 1560 1556 1559 1559 1559 1558 1558 1557 1555 1553 1551 1549 1546 1544 1541 1538 1536 1535 1533 1533 1533 1533 1534 1533 1533
1541 1544 1547 1549 1552 1554 1556 1557 1558 1559 1559 1560 1560 1560 1559 1559 1561 1561 1557 1559 1559 1559 1558 1556 1556 1554 1553 1551 1549 1546 1543 1542 1540 1538 1536 1534 1531 1530 1530 1531 1531 1530 1530
1540 1542 1545 1547 1549 1552 1554 1556 1556 1557 1557 1556 1558 1558 1560 1561 1561 1561 1560 1559 1559 1558 1557 1556 1555 1554 1553 1548 1547 1544 1540 1537 1532 1531 1533 1537 1531 1529 1529 1528 1528 1528 1526
1537 1540 1543 1545 1547 1549 1552 1554 1555 1556 1556 1556 1554 1557 1560 1560 1560 1560 1559 1559 1558 1558 1555 1553 1553 1552 1551 1546 1546 1544 1541 1537 1532 1526 1524 1529 1529 1527 1526 1526 1525 1523 1522
1533 1536 1539 1541 1544 1546 1549 1552 1553 1554 1555 1556 1555 1556 1556 1559 1560 1559 1559 1557 1557 1556 1554 1553 1553 1549 1549 1547 1542 1542 1540 1536 1532 1526 1520 1515 1518 1520 1521 1521 1519 1519 1519
1528 1532 1535 1538 1540 1543 1545 1549 1551 1552 1553 1552 1554 1554 1555 1557 1558 1558 1557 1556 1555 1555 1553 1552 1551 1548 1547 1544 1542 1539 1536 1533 1530 1524 1517 1512 1510 1512 1514 1516 1516 1516 1516
1523 1527 1531 1534 1536 1540 1541 1544 1547 1549 1551 1551 1553 1552 1554 1555 1554 1555 1555 1553 1553 1552 1551 1548 1547 1544 1544 1542 1539 1535 1532 1529 1525 1522 1515 1512 1509 1511 1511 1511 1512 1512 1511
1519 1523 1526 1529 1531 1534 1537 1540 1543 1546 1547 1548 1551 1551 1552 1551 1550 1549 1551 1551 1550 1549 1547 1546 1543 1541 1538 1537 1535 1534 1530 1527 1524 1517 1513 1511 1510 1509 1510 1510 1509 1511 1510